JEI212 LOWL-EDMO

Flight info

Callsign JEI212
Flight time 0h 28m
Altitude 28000
Route LIDSI DCT MATIG DCT TITIG
Aircraft LJ35/M-SGHRWXY/SB1

Departure

Time 2026-04-20 11:11
Airport Linz-Hörsching Airport (LOWL)

Arrival

Time 2026-04-20 11:39
Airport Oberpfaffenhofen Airport (EDMO)
Time Latitude Longitude Altitude Speed Heading
2026-04-20 11:05 48.23777 14.18861 972 ft 7 kts 177°
2026-04-20 11:05 48.23744 14.18910 977 ft 10 kts 88°
2026-04-20 11:06 48.23750 14.19048 970 ft 16 kts 88°
2026-04-20 11:06 48.23760 14.19238 970 ft 21 kts 87°
2026-04-20 11:06 48.23764 14.19470 968 ft 24 kts 86°
2026-04-20 11:06 48.23757 14.19593 966 ft 10 kts 137°
2026-04-20 11:07 48.23677 14.19645 964 ft 15 kts 147°
2026-04-20 11:07 48.23593 14.19693 966 ft 0 kts 161°
2026-04-20 11:09 48.23588 14.19696 964 ft 3 kts 161°
2026-04-20 11:09 48.23540 14.19720 966 ft 11 kts 158°
2026-04-20 11:10 48.23454 14.19772 967 ft 15 kts 158°
2026-04-20 11:10 48.23382 14.19787 968 ft 9 kts 211°
2026-04-20 11:10 48.23351 14.19663 971 ft 24 kts 267°
2026-04-20 11:10 48.23325 14.18892 972 ft 114 kts 266°
2026-04-20 11:11 48.23277 14.17576 1276 ft 127 kts 268°
2026-04-20 11:11 48.23221 14.16254 1903 ft 134 kts 268°
2026-04-20 11:11 48.23135 14.14737 2661 ft 159 kts 267°
2026-04-20 11:11 48.23035 14.13046 3813 ft 168 kts 268°
2026-04-20 11:12 48.22999 14.11274 4904 ft 175 kts 273°
2026-04-20 11:12 48.22987 14.09406 6074 ft 182 kts 270°
2026-04-20 11:12 48.22924 14.07380 7013 ft 204 kts 267°
2026-04-20 11:12 48.22833 14.05188 8075 ft 215 kts 267°
2026-04-20 11:13 48.22748 14.02925 9133 ft 226 kts 268°
2026-04-20 11:13 48.22676 14.00498 10188 ft 237 kts 268°
2026-04-20 11:13 48.22587 13.98007 11226 ft 246 kts 267°
2026-04-20 11:13 48.22488 13.95482 12268 ft 250 kts 268°
2026-04-20 11:14 48.22374 13.92822 13396 ft 251 kts 268°
2026-04-20 11:14 48.22149 13.90200 14466 ft 257 kts 256°
2026-04-20 11:14 48.21369 13.87731 15402 ft 270 kts 241°
2026-04-20 11:14 48.20284 13.85379 16339 ft 277 kts 240°
2026-04-20 11:15 48.19177 13.82973 17307 ft 284 kts 240°
2026-04-20 11:15 48.18047 13.80490 18225 ft 295 kts 240°
2026-04-20 11:15 48.16870 13.77928 19106 ft 302 kts 241°
2026-04-20 11:15 48.15676 13.75354 20006 ft 307 kts 241°
2026-04-20 11:16 48.14447 13.72696 20954 ft 311 kts 242°
2026-04-20 11:16 48.13212 13.70013 21953 ft 314 kts 242°
2026-04-20 11:16 48.11963 13.67308 22982 ft 316 kts 242°
2026-04-20 11:16 48.10713 13.64616 23998 ft 317 kts 243°
2026-04-20 11:17 48.09450 13.61887 24747 ft 321 kts 243°
2026-04-20 11:17 48.08173 13.59126 25508 ft 325 kts 244°
2026-04-20 11:17 48.06946 13.56293 26252 ft 322 kts 250°
2026-04-20 11:17 48.06168 13.53189 27020 ft 316 kts 262°
2026-04-20 11:18 48.05879 13.49960 27791 ft 312 kts 273°
2026-04-20 11:18 48.05896 13.46657 28083 ft 326 kts 275°
2026-04-20 11:18 48.05913 13.43211 28101 ft 345 kts 274°
2026-04-20 11:18 48.05922 13.39530 28099 ft 360 kts 274°
2026-04-20 11:19 48.05928 13.35733 28098 ft 364 kts 274°
2026-04-20 11:19 48.05941 13.28295 28075 ft 352 kts 274°
2026-04-20 11:20 48.05960 13.21070 28089 ft 344 kts 274°
2026-04-20 11:20 48.05966 13.15156 28089 ft 341 kts 274°
2026-04-20 11:21 48.05974 13.08090 28084 ft 336 kts 274°
2026-04-20 11:21 48.05971 13.01150 28075 ft 333 kts 274°
2026-04-20 11:21 48.05921 12.97665 27814 ft 338 kts 272°
2026-04-20 11:22 48.05767 12.94135 27116 ft 353 kts 269°
2026-04-20 11:22 48.05529 12.90457 26531 ft 354 kts 269°
2026-04-20 11:22 48.05287 12.86778 25941 ft 349 kts 269°
2026-04-20 11:22 48.05056 12.83233 25372 ft 345 kts 269°
2026-04-20 11:23 48.04824 12.79684 24808 ft 343 kts 268°
2026-04-20 11:23 48.04593 12.76143 24214 ft 340 kts 268°
2026-04-20 11:23 48.04366 12.72610 23592 ft 342 kts 268°
2026-04-20 11:23 48.04142 12.69072 22862 ft 342 kts 268°
2026-04-20 11:24 48.03920 12.65511 22151 ft 344 kts 268°
2026-04-20 11:24 48.03700 12.61971 21442 ft 334 kts 268°
2026-04-20 11:24 48.03488 12.58565 20770 ft 324 kts 268°
2026-04-20 11:24 48.03279 12.55296 20107 ft 316 kts 267°
2026-04-20 11:25 48.03072 12.52065 19448 ft 309 kts 267°
2026-04-20 11:25 48.02874 12.48893 18803 ft 304 kts 267°
2026-04-20 11:25 48.02677 12.45753 18136 ft 301 kts 267°
2026-04-20 11:25 48.02565 12.42691 17421 ft 297 kts 276°
2026-04-20 11:26 48.03121 12.39759 16714 ft 294 kts 292°
2026-04-20 11:26 48.04038 12.37024 16032 ft 293 kts 295°
2026-04-20 11:26 48.04920 12.34278 15365 ft 292 kts 292°
2026-04-20 11:26 48.05640 12.31433 14712 ft 292 kts 288°
2026-04-20 11:27 48.06303 12.28560 14074 ft 292 kts 288°
2026-04-20 11:27 48.07012 12.25725 13473 ft 290 kts 290°
2026-04-20 11:27 48.07733 12.22950 13093 ft 282 kts 290°
2026-04-20 11:27 48.08415 12.20250 12714 ft 272 kts 290°
2026-04-20 11:28 48.09080 12.17611 12338 ft 269 kts 289°
2026-04-20 11:28 48.09721 12.15043 11969 ft 264 kts 289°
2026-04-20 11:28 48.10362 12.12472 11601 ft 262 kts 289°
2026-04-20 11:28 48.11001 12.09925 11238 ft 261 kts 289°
2026-04-20 11:29 48.11639 12.07383 10884 ft 261 kts 289°
2026-04-20 11:29 48.12276 12.04829 10532 ft 262 kts 289°
2026-04-20 11:29 48.12914 12.02280 10177 ft 263 kts 289°
2026-04-20 11:29 48.13555 11.99715 9826 ft 264 kts 289°
2026-04-20 11:30 48.14198 11.97131 9443 ft 265 kts 289°
2026-04-20 11:30 48.14834 11.94571 9072 ft 265 kts 289°
2026-04-20 11:30 48.15480 11.91978 8707 ft 266 kts 289°
2026-04-20 11:30 48.16129 11.89371 8342 ft 267 kts 289°
2026-04-20 11:31 48.16776 11.86755 7980 ft 267 kts 289°
2026-04-20 11:31 48.17421 11.84144 7633 ft 266 kts 289°
2026-04-20 11:31 48.18041 11.81568 7371 ft 261 kts 287°
2026-04-20 11:31 48.18305 11.78893 7113 ft 260 kts 271°
2026-04-20 11:32 48.18507 11.76250 6854 ft 257 kts 285°
2026-04-20 11:32 48.19079 11.73731 6602 ft 253 kts 288°
2026-04-20 11:32 48.19584 11.71194 6350 ft 254 kts 285°
2026-04-20 11:32 48.20056 11.68634 6085 ft 252 kts 285°
2026-04-20 11:33 48.20512 11.66098 5819 ft 249 kts 285°
2026-04-20 11:33 48.20960 11.63607 5546 ft 248 kts 285°
2026-04-20 11:33 48.21417 11.61088 5304 ft 252 kts 285°
2026-04-20 11:33 48.21874 11.58547 5098 ft 249 kts 285°
2026-04-20 11:34 48.22304 11.56088 5071 ft 239 kts 285°
2026-04-20 11:34 48.22720 11.53679 4997 ft 239 kts 285°
2026-04-20 11:34 48.23112 11.51342 4990 ft 230 kts 285°
2026-04-20 11:34 48.23398 11.49016 4979 ft 224 kts 270°
2026-04-20 11:35 48.22911 11.46861 4980 ft 219 kts 237°
2026-04-20 11:35 48.21708 11.45534 4981 ft 218 kts 202°
2026-04-20 11:35 48.20210 11.45472 4976 ft 217 kts 168°
2026-04-20 11:35 48.18734 11.45806 4832 ft 214 kts 186°
2026-04-20 11:36 48.17362 11.45151 4607 ft 211 kts 218°
2026-04-20 11:36 48.16479 11.43444 4340 ft 208 kts 253°
2026-04-20 11:36 48.16079 11.41361 4119 ft 209 kts 250°
2026-04-20 11:36 48.15391 11.39392 3825 ft 208 kts 242°
2026-04-20 11:37 48.14721 11.37682 3556 ft 171 kts 241°
2026-04-20 11:37 48.13237 11.35321 3089 ft 138 kts 228°
2026-04-20 11:37 48.12558 11.34365 2937 ft 128 kts 228°
2026-04-20 11:38 48.11899 11.33486 2761 ft 132 kts 228°
2026-04-20 11:38 48.11219 11.32536 2719 ft 134 kts 230°
2026-04-20 11:38 48.10533 11.31571 2533 ft 136 kts 227°
2026-04-20 11:38 48.09833 11.30613 2254 ft 137 kts 224°
2026-04-20 11:39 48.09136 11.29668 2038 ft 134 kts 226°
2026-04-20 11:39 48.08453 11.28751 1926 ft 121 kts 229°
2026-04-20 11:39 48.07978 11.28094 1923 ft 58 kts 222°
2026-04-20 11:39 48.07774 11.27810 1925 ft 37 kts 222°
2026-04-20 11:40 48.07632 11.27619 1924 ft 17 kts 223°
2026-04-20 11:40 48.07542 11.27496 1923 ft 19 kts 222°
2026-04-20 11:40 48.07456 11.27374 1923 ft 11 kts 232°
2026-04-20 11:40 48.07464 11.27308 1922 ft 8 kts 311°
2026-04-20 11:41 48.07517 11.27285 1920 ft 9 kts 23°
2026-04-20 11:41 48.07569 11.27350 1920 ft 11 kts 43°
2026-04-20 11:41 48.07637 11.27442 1920 ft 15 kts 42°
2026-04-20 11:41 48.07721 11.27557 1920 ft 18 kts 43°
2026-04-20 11:42 48.07820 11.27691 1921 ft 21 kts 40°
2026-04-20 11:42 48.07956 11.27777 1920 ft 22 kts
2026-04-20 11:42 48.08073 11.27779 1919 ft 13 kts 360°
2026-04-20 11:42 48.08142 11.27820 1919 ft 10 kts 44°
2026-04-20 11:43 48.08192 11.27889 1919 ft 9 kts 42°
2026-04-20 11:43 48.08237 11.27952 1919 ft 8 kts 44°
2026-04-20 11:43 48.08276 11.28011 1919 ft 8 kts 45°
2026-04-20 11:43 48.08313 11.28065 1925 ft 7 kts 45°
2026-04-20 11:44 48.08345 11.28112 1919 ft 6 kts 33°
2026-04-20 11:44 48.08376 11.28099 1919 ft 5 kts 299°
2026-04-20 11:44 48.08399 11.28049 1919 ft 7 kts 305°
2026-04-20 11:44 48.08421 11.27988 1928 ft 7 kts 274°
2026-04-20 11:45 48.08408 11.27929 1919 ft 6 kts 218°
2026-04-20 11:45 48.08381 11.27920 1919 ft 3 kts 162°
2026-04-20 11:45 48.08373 11.27935 1919 ft 1 kts 76°
2026-04-20 11:45 48.08376 11.27939 1919 ft 0 kts 37°
2026-04-20 11:46 48.08379 11.27942 1919 ft 1 kts 24°
2026-04-20 11:46 48.08382 11.27944 1919 ft 0 kts 32°
2026-04-20 11:46 48.08385 11.27946 1919 ft 0 kts 33°